Probability
0 0 0 0 0 0 0 0 0 0 0 0 0 0 0 0 0 0 0 0 0 0 0 0 0 0 0 0 0 0 0 0 0 0 0 0 0 0 0 0 0 0 1 2
0 0 0 0 0 0 0 0 0 0 0 0 0 0 0 0 0 0 0 0 0 0 0 0 0 0 0 0 0 0 0 0 0 0 0 0 0 0 0 0 0 0 1 2
0 0 0 0 0 0 0 0 0 0 0 0 0 0 0 0 0 0 0 0 0 0 0 0 0 0 0 0 0 0 0 0 0 0 0 0 0 0 0 0 0 0 0 1
0 0 0 0 0 0 0 0 0 0 0 0 0 0 0 0 0 0 0 0 0 0 0 0 0 0 0 0 0 0 0 0 0 0 0 0 0 0 0 0 0 0 0 0
0 0 0 0 0 0 0 0 0 0 0 0 0 0 0 0 0 0 0 0 0 0 0 0 0 0 0 0 0 0 0 0 0 0 0 0 0 0 0 0 0 0 0 0
0 0 0 0 0 0 0 0 0 0 0 0 0 0 0 0 0 0 0 0 0 0 0 0 0 0 0 0 0 0 0 0 0 0 0 0 0 0 0 0 0 0 0 0
0 0 0 0 0 0 0 0 0 0 0 0 0 0 0 0 0 0 0 0 0 0 0 0 0 0 0 0 0 0 0 0 0 0 0 0 0 0 0 0 0 0 0 0
0 0 0 0 0 0 0 0 0 0 0 0 0 0 0 0 0 0 0 0 0 0 0 0 0 0 0 0 0 0 0 0 0 0 0 0 0 0 0 0 0 0 0 0
0 0 0 0 0 0 0 0 0 0 0 0 0 0 0 0 0 0 0 0 0 0 0 0 0 0 0 0 0 0 0 0 0 0 0 0 0 0 0 0 0 0 0 0
0 0 0 0 0 0 0 0 0 0 0 0 0 0 0 0 0 0 0 0 0 0 0 0 0 0 0 0 0 0 0 0 0 0 0 0 0 0 0 0 0 0 0 0
0 0 0 0 0 0 0 0 0 0 0 0 0 0 0 0 0 0 0 0 0 0 0 0 0 0 0 0 0 0 0 0 0 0 0 0 0 0 0 0 0 0 0 0
0 0 0 0 0 0 0 0 0 0 0 0 0 0 0 0 0 0 0 0 0 0 0 0 0 0 0 0 0 0 0 0 0 0 0 0 0 0 0 0 0 0 0 0
0 0 0 0 0 0 0 0 0 0 0 0 0 0 0 0 0 0 0 0 0 0 0 0 0 0 0 0 0 0 0 0 0 0 0 0 0 0 0 0 0 0 0 0
0 0 0 0 0 0 0 0 0 0 0 0 0 0 0 0 0 0 0 0 0 0 0 0 0 0 0 0 0 0 0 0 0 0 0 0 0 0 0 0 0 0 0 0
0 0 0 0 0 0 0 0 0 0 0 0 0 0 0 0 0 0 0 0 0 0 0 0 0 0 0 0 0 0 0 0 0 0 0 0 0 0 0 0 0 0 0 0
0 0 0 0 0 0 0 0 0 0 0 0 0 0 0 0 0 0 0 0 0 0 0 0 0 0 0 0 0 0 0 0 0 0 0 0 0 0 0 0 0 0 0 0
0 0 0 0 0 0 0 0 0 0 0 0 0 0 0 0 0 0 0 0 0 0 0 0 0 0 0 0 0 0 0 0 0 0 0 0 0 0 0 0 0 0 0 0
0 0 0 0 0 0 0 0 0 0 0 0 0 0 0 0 0 0 0 0 0 0 0 0 0 0 0 0 0 0 0 0 0 0 0 0 0 0 0 0 0 0 0 0
0 0 0 0 0 0 0 0 0 0 0 0 0 0 0 0 0 0 0 0 0 0 0 0 0 0 0 0 0 0 0 0 0 0 0 0 0 0 0 0 0 0 0 0
0 0 0 0 0 0 0 0 0 0 0 0 0 0 0 0 0 0 0 0 0 0 0 0 0 0 0 0 0 0 0 0 0 0 0 0 0 0 0 0 0 0 0 0
0 0 0 0 0 0 0 0 0 0 0 0 0 0 0 0 0 0 0 0 0 0 0 0 0 0 0 0 0 0 0 0 0 0 0 0 0 0 0 0 0 0 0 0
0 0 0 0 0 0 0 0 0 0 0 0 0 0 0 0 0 0 0 0 0 0 0 0 0 0 0 0 0 0 0 0 0 0 0 0 0 0 0 0 0 0 0 0
0 0 0 0 0 0 0 0 0 0 0 0 0 0 0 0 0 0 0 0 0 0 0 0 0 0 0 0 0 0 0 0 0 0 0 0 0 0 0 0 0 0 0 0
0 0 0 0 0 0 0 0 0 0 0 0 0 0 0 0 0 0 0 0 0 0 0 0 0 0 0 0 0 0 0 0 0 0 0 0 0 0 0 0 0 0 0 0
0 0 0 0 0 0 0 0 0 0 0 0 0 0 0 0 0 0 0 0 0 0 0 0 0 0 0 0 0 0 0 0 0 0 0 0 0 0 0 0 0 0 0 0
0 0 0 0 0 0 0 0 0 0 0 0 0 0 0 0 0 0 0 0 0 0 0 0 0 0 0 0 0 0 0 0 0 0 0 0 0 0 0 0 0 0 0 0
Wind_Speed
6 7 7 6 4 3 3 4 4 2 1 5 7 6 5 6 7 6 5 3 3 4 5 6 7 8 8 9 10 10 10 10 8 7 7 6 6 6 5 5 5 6 6 6
8 6 3 3 4 2 2 3 1 3 1 4 5 7 5 6 7 6 5 4 4 5 6 6 7 8 9 9 10 10 10 10 9 7 6 5 6 6 5 5 5 6 6 6
8 6 6 6 6 3 1 2 1 1 3 4 5 6 7 6 7 6 6 5 5 5 7 7 8 8 8 9 10 9 10 9 9 9 6 6 5 5 4 5 5 5 6 5
7 5 6 6 4 2 2 2 1 3 5 1 3 5 3 4 6 7 7 6 4 4 5 6 7 8 8 9 9 10 10 10 9 9 7 8 6 6 6 6 5 6 5 5
7 6 5 4 3 1 4 3 2 3 5 5 4 6 2 3 4 3 4 4 4 3 4 5 6 7 7 8 8 8 9 9 9 9 8 8 7 6 6 6 6 6 5 5
8 4 3 4 5 3 6 5 4 4 6 5 0 5 2 1 2 1 1 2 3 3 3 4 5 5 6 6 7 7 8 8 9 9 9 8 9 8 8 7 7 6 4 4
7 6 4 3 5 5 5 5 4 5 4 0 2 5 3 3 1 3 2 2 2 2 4 4 5 6 6 7 7 7 8 8 8 9 8 9 9 8 7 7 6 6 5 5
8 7 4 2 1 1 1 5 5 4 3 1 3 4 2 2 1 3 3 3 3 3 3 4 5 5 6 6 6 7 7 7 8 8 9 8 9 6 6 7 6 6 5 6
5 6 5 3 2 1 3 1 4 5 3 4 2 2 1 3 4 5 5 5 4 3 3 4 4 5 5 5 6 6 7 7 7 8 8 8 9 8 8 8 7 6 6 6
2 6 6 5 5 4 4 2 3 4 4 3 1 2 1 1 1 2 4 5 4 4 4 3 4 4 4 5 5 5 6 7 6 7 7 7 8 8 8 7 8 8 8 8
2 5 7 6 4 3 4 3 2 3 4 5 2 2 3 2 2 3 3 3 4 4 4 4 4 4 4 4 4 4 5 5 6 6 7 7 7 7 7 7 8 8 8 8
0 3 5 4 3 2 2 2 4 4 2 3 4 1 4 2 4 5 5 4 4 4 4 4 4 4 4 4 4 4 4 5 5 6 6 7 7 7 8 8 8 8 8 8
4 5 5 6 6 6 4 3 3 3 3 3 4 1 4 3 5 5 6 6 5 5 5 5 4 4 4 3 3 3 3 4 4 5 6 6 7 8 8 8 8 8 8 8
4 5 5 2 3 5 6 6 7 7 4 3 5 6 4 5 5 4 5 6 6 6 6 5 5 4 3 3 3 3 3 3 3 4 5 6 7 7 7 8 8 8 8 8
5 4 3 1 2 3 4 7 9 10 6 6 5 8 10 7 5 4 4 5 6 6 6 6 5 4 4 3 3 2 2 2 2 3 5 6 6 6 7 7 7 7 7 7
5 4 5 5 3 5 6 8 9 10 8 9 10 9 4 3 3 4 4 5 7 7 6 6 5 5 4 3 3 2 2 1 2 3 4 4 5 6 6 7 7 7 7 7
6 6 6 5 4 5 8 8 10 7 7 7 6 3 3 5 4 4 4 5 6 6 6 6 5 5 4 3 2 2 2 1 2 3 3 4 4 5 6 6 7 7 6 7
6 6 4 3 6 7 4 4 4 6 5 7 8 7 6 6 6 5 6 6 6 6 6 6 5 5 4 3 2 2 2 3 2 2 3 3 4 4 5 5 6 6 6 6
3 5 4 4 5 3 4 5 6 5 3 3 6 5 3 3 5 4 2 5 5 4 5 5 5 4 4 3 3 4 3 3 3 3 3 2 3 4 4 5 5 5 6 6
2 5 5 5 5 4 5 6 4 4 4 3 3 3 1 3 3 3 3 1 3 4 4 4 5 5 5 4 4 5 4 4 3 3 3 3 3 3 4 4 5 4 4 5
8 7 8 7 6 3 5 5 5 6 3 3 1 2 2 4 4 4 2 1 2 3 4 5 5 5 5 4 5 6 5 4 3 3 4 4 4 4 4 4 4 4 4 4
8 7 7 7 7 4 6 7 6 3 4 1 2 2 3 4 4 3 2 2 2 3 4 5 6 6 5 5 6 7 6 4 4 4 5 5 5 4 4 4 4 4 4 5
7 5 4 5 1 5 3 2 2 3 3 2 2 2 3 3 3 2 2 2 2 3 4 5 6 6 6 6 7 8 6 5 5 6 6 6 6 5 5 5 5 4 4 4
6 3 5 5 5 4 3 2 1 3 3 3 3 2 2 2 2 2 2 1 1 2 3 4 5 6 6 6 7 8 6 5 7 7 7 7 7 7 6 4 5 5 4 4
5 8 7 7 5 6 6 4 1 1 1 1 1 1 1 1 2 3 2 2 2 2 2 3 5 5 6 6 6 6 6 7 8 9 8 8 7 7 6 6 5 6 5 4
9 9 9 7 8 8 7 6 3 3 3 2 3 4 5 4 4 3 4 4 4 3 2 2 4 5 6 6 6 6 6 7 9 9 8 7 6 6 6 6 6 9 10 7
Wind_Direction
172 195 196 192 220 312 301 279 284 76 115 238 249 250 209 198 213 228 241 267 311 340 349 2 355 353 350 353 350 350 348 349 347 343 335 333 330 323 321 314 317 304 295 287
173 184 129 119 147 182 225 255 240 134 134 260 265 260 228 214 225 242 264 281 308 329 337 356 351 354 352 353 352 350 351 349 347 345 332 321 319 315 320 317 318 317 310 297
186 120 137 154 157 175 177 290 282 209 169 209 273 246 207 205 222 234 248 269 297 321 331 344 347 349 349 354 352 349 350 347 349 345 335 328 327 317 328 329 327 324 320 307
109 119 152 153 130 259 155 73 182 204 245 230 277 297 153 196 227 235 242 253 279 307 322 333 339 344 347 351 348 347 351 351 351 346 344 343 338 334 330 327 325 325 327 326
115 132 155 138 85 331 84 108 174 235 263 266 224 277 125 169 250 243 239 251 272 296 318 329 340 342 345 348 346 346 351 355 356 350 348 340 343 335 330 329 331 330 336 334
101 96 50 87 88 87 137 160 162 210 242 251 139 279 306 117 338 357 214 248 266 283 306 320 337 339 344 347 346 346 352 358 358 352 349 349 347 342 340 341 338 336 335 334
131 118 103 139 151 149 212 245 233 213 216 167 91 268 299 37 307 282 289 300 291 280 299 318 333 339 342 343 345 344 351 355 357 354 354 354 350 344 345 344 341 338 337 338
169 148 120 134 296 190 202 283 302 308 323 63 188 258 22 72 255 250 254 262 268 270 291 309 323 329 332 336 339 341 346 350 354 352 354 356 354 348 349 348 342 340 338 336
179 125 109 75 61 278 191 215 342 296 284 271 209 253 227 168 225 230 239 245 253 269 280 298 314 321 327 331 336 339 340 346 353 351 351 355 356 355 353 351 350 347 343 338
144 136 143 142 153 62 357 123 220 263 288 281 237 246 345 178 253 233 241 245 249 255 269 288 304 309 317 327 330 334 340 344 351 351 353 355 353 355 353 351 354 350 348 350
209 165 152 182 217 177 169 189 232 260 293 301 323 86 64 327 311 285 268 252 247 252 265 285 300 302 306 311 320 330 339 348 353 352 353 352 355 353 353 356 354 350 349 352
40 235 166 148 95 356 267 252 240 272 232 271 292 36 111 257 277 273 270 252 238 244 257 270 285 289 292 303 318 330 340 351 355 351 352 355 353 355 358 359 354 352 354 354
161 210 179 166 173 184 203 195 226 263 261 248 270 66 123 255 271 261 256 251 236 234 244 256 265 276 286 293 303 318 332 344 352 352 351 354 360 0 0 359 356 353 356 356
237 223 257 298 86 157 183 186 202 224 249 255 252 295 314 313 301 275 247 240 234 234 239 249 258 266 272 277 285 298 319 334 340 348 351 357 1 359 357 1 357 356 357 357
240 219 189 116 108 197 211 199 201 225 255 273 293 293 304 322 316 290 254 233 227 231 234 240 249 264 267 266 267 271 288 307 325 339 350 358 357 359 357 359 358 357 357 359
223 204 183 181 186 219 236 225 215 230 246 257 276 285 291 311 286 266 242 227 230 231 233 237 243 250 260 261 263 256 258 278 304 329 351 357 349 359 358 358 358 360 0 2
190 203 211 193 172 225 234 213 204 211 218 236 260 307 328 293 287 282 265 236 237 235 231 234 238 238 250 264 274 255 261 269 282 314 339 344 349 355 359 360 1 358 1 4
195 199 220 210 200 229 94 99 191 219 235 233 258 286 295 292 293 280 265 252 241 230 225 225 228 226 233 228 221 227 227 249 276 301 317 332 334 345 352 356 357 354 358 1
259 206 215 229 225 224 169 175 187 208 195 208 245 275 297 293 260 221 209 237 245 234 224 220 224 222 226 222 220 222 227 240 259 278 294 305 318 330 337 344 347 353 350 351
182 229 230 221 235 220 138 129 168 221 190 136 231 282 284 254 270 72 68 221 229 222 217 213 211 220 222 215 215 236 248 253 255 261 274 285 302 310 316 330 335 340 338 338
186 201 221 225 236 228 113 139 180 215 111 102 232 277 243 263 342 25 7 285 224 211 207 209 213 220 225 217 219 240 252 261 260 253 262 268 272 284 298 309 312 313 323 326
198 193 201 207 220 198 133 171 205 42 53 335 275 283 274 287 315 310 291 274 233 213 205 211 218 221 220 220 230 245 254 261 248 241 249 257 263 270 276 282 293 301 307 305
217 222 211 216 199 75 158 210 3 324 286 301 301 304 287 279 293 311 303 281 244 230 215 215 226 233 226 221 233 252 254 244 238 240 247 254 257 257 263 271 278 283 284 293
187 192 214 219 207 178 173 188 247 274 272 291 292 290 279 282 319 332 330 322 283 248 233 227 231 238 240 233 232 249 258 245 244 247 251 251 253 254 254 255 266 273 281 286
176 181 208 221 173 169 193 192 205 225 229 206 140 77 25 8 17 7 7 6 348 318 259 241 246 254 260 255 247 250 253 250 251 254 252 252 252 256 261 254 252 262 264 270
186 194 202 215 186 187 170 154 165 163 135 114 119 95 67 48 37 32 33 23 9 357 335 292 275 274 276 276 272 268 260 255 259 263 264 259 255 249 251 257 250 225 236 232